Details From KUES - Waukesha Co
To KRYV - Watertown Muni
Flight Number -
Tags Routegen Generated
Created
Modified
Stats Distance 28 nm / 52 km
Max Altitude 100 ft / 30 m
Waypoints 5
Social Downloads 0
Likes 0
Share VATSIM

Download

Looking for another format? Having issues loading an existing format? Contact us
Advertisement - Login to hide

Notes

Departing runway 28 KUES. Arriving runway 5 KRYV.

Route

KUES +43.06_-088.35 +43.16_-088.45 +43.26_-088.56 KRYV

ID Type Via Altitude Latitude Longitude Leg Dist Tot Dist Heading (true) Name
O KUES APT - 0 ft / 0 m 43.04394˚ -88.24972˚ - 0 nm - -
+43.06_-088.35 DME - 100 ft / 30 m 43.05895˚ -88.34660˚ 4 nm 4 nm 282° / 282° -
+43.16_-088.45 DME - 100 ft / 30 m 43.15912˚ -88.45257˚ 7 nm 11 nm 322° / 322° -
+43.26_-088.56 DME - 100 ft / 30 m 43.25929˚ -88.55855˚ 7 nm 19 nm 322° / 322° -
O KRYV APT - 0 ft / 0 m 43.17250˚ -88.71747˚ 8 nm 28 nm 233° / 233° Watertown Muni

Altitude Profile

Advertisement - Login to hide

KUES

Details ICAO KUES
Name Waukesha Co
Region United States
Timezone America/Chicago (UTC-5.0)
Stats Elevation 911 ft / 278 m (AMSL)
Location 43.040641° -88.236487°
Runways 2
Magnetic Variation 3.667° W

METAR

KUES 251045Z 06007KT 10SM SKC 13/11 A3016

Decode

TAF

TAF KUES 250520Z 2506/2606 VRB04KT P6SM FEW250 FM251400 09010KT P6SM SCT250 FM260500 11008KT P6SM BKN200

Decode

Departure Runways

ID Width Length Bearing (true) Bearing (mag) Surface Threshold Offset Overrun Length
10 98 ft / 30 m 5,837 ft / 1,779 m 101.99° 105.66° Concrete 0 ft / 0 m 0 ft / 0 m
18 75 ft / 23 m 3,602 ft / 1,098 m 185.25° 188.92° Asphalt 0 ft / 0 m 0 ft / 0 m
28 98 ft / 30 m 5,837 ft / 1,779 m 282.00° 285.67° Concrete 0 ft / 0 m 0 ft / 0 m
36 75 ft / 23 m 3,602 ft / 1,098 m 5.25° 8.92° Asphalt 0 ft / 0 m 0 ft / 0 m

KRYV

Details ICAO KRYV
Name Watertown Muni
Region United States
Timezone America/Chicago (UTC-5.0)
Stats Elevation 833 ft / 254 m (AMSL)
Location 43.169845° -88.722947°
Runways 2
Magnetic Variation 3.296° W

METAR

KRYV 251115Z AUTO 08007KT 10SM CLR 15/15 A3011 RMK AO2 T01450145

Decode

TAF

Not found

Destination Runways

ID Width Length Bearing (true) Bearing (mag) Surface Threshold Offset Overrun Length
05 75 ft / 23 m 4,425 ft / 1,349 m 53.09° 56.39° Asphalt 200 ft / 61 m 400 ft / 122 m
11 75 ft / 23 m 2,817 ft / 859 m 113.31° 116.61° Asphalt 0 ft / 0 m 0 ft / 0 m
23 75 ft / 23 m 4,425 ft / 1,349 m 233.10° 236.40° Asphalt 0 ft / 0 m 400 ft / 122 m
29 75 ft / 23 m 2,817 ft / 859 m 293.32° 296.62° Asphalt 0 ft / 0 m 0 ft / 0 m